Flag for U.S.A. Weather past 2 weeks in Winamac, Indiana, U.S.A.

Now
45 °F

Passing clouds.


Feels Like: 38 °F
Forecast: 40 / 56 °F
Wind: 16 mph from West

Location: Porter County Municipal Airport

Current Time: Apr 20, 2015 at 9:54:01 PM

Latest Report: Apr 20, 2015 at 8:56 PM


Visibility: 10 mi

Pressure: 29.63 "Hg

Humidity: 56%

Dew point: 30 °F

Location of WinamacLocation

Historic Weather in Winamac — Graph

°F

Winamac temperature yesterday

Maximum temperature yesterday: 70 °F (at 11:56 AM)
Minimum temperature yesterday: 50 °F (at 4:56 AM)
Average temperature yesterday: 56 °F

Past Weeks' High & Low Weather Summary

 TemperatureHumidityPressure
High76 °F (Apr 17, 2:56 PM)100% (Apr 8, 3:56 AM)30.29 "Hg (Apr 8, 3:56 AM)
Low33 °F (Apr 11, 6:56 AM)20% (Apr 14, 3:56 PM)29.26 "Hg (Apr 20, 12:56 AM)
Average54 °F62%29.98 "Hg
* Reported Apr 5 7:56 PM — Apr 20 7:56 PM, Winamac, Weather by CustomWeather, © 2015

Note: Actual official high and low records may vary slightly from our data, if they occured in-between our weather recording intervals... More about our weather records

Advertising

Winamac weather history for previous 24 hours

 ConditionsComfort  
Time TempWeatherWind HumidityBarometerVisibility
7:56 PM
Mon, Apr 20
46 °FOvercast.23 mph58%29.61 "Hg10 mi
6:56 PM48 °FOvercast.22 mph56%29.58 "Hg10 mi
5:56 PM49 °FPartly sunny.30 mph57%29.56 "Hg10 mi
4:56 PM48 °FMostly cloudy.21 mph63%29.54 "Hg10 mi
3:56 PM48 °FOvercast.26 mph68%29.52 "Hg10 mi
2:56 PM47 °FOvercast.24 mph74%29.49 "Hg10 mi
1:56 PM47 °FOvercast.28 mph80%29.45 "Hg10 mi
12:56 PM48 °FOvercast.28 mph77%29.42 "Hg10 mi
11:56 AM48 °FOvercast.24 mph83%29.39 "Hg10 mi
10:56 AM49 °FOvercast.21 mph84%29.35 "Hg10 mi
9:56 AM50 °FOvercast.24 mph86%29.32 "Hg10 mi
8:56 AM50 °FLow clouds.20 mph93%29.31 "Hg10 mi
7:56 AM54 °FMostly cloudy.21 mph93%29.29 "Hg10 mi
6:56 AM55 °FFog.12 mph93%29.28 "Hg6 mi
5:56 AM54 °FFog.14 mph97%29.28 "Hg4 mi
4:56 AM53 °FFog.16 mph93%29.28 "Hg4 mi
3:56 AM53 °FLow clouds.18 mph96%29.28 "Hg9 mi
2:56 AM53 °FFog.16 mph96%29.27 "Hg4 mi
1:56 AM53 °FMostly cloudy.14 mph96%29.28 "Hg8 mi
12:56 AM53 °FFog.10 mph100%29.26 "Hg5 mi
11:56 PM
Sun, Apr 19
53 °FFog.3 mph96%29.26 "Hg6 mi
10:56 PM53 °FLight rain. Fog.8 mph96%29.29 "Hg3 mi
9:56 PM54 °FLight rain. Low clouds.13 mph93%29.33 "Hg8 mi
Weather by CustomWeather, © 2015

See weather overviewHow to use our weather pages